This demonstration page uses our WeatherBlox Daily Observations layout. Learn more.

Left ArrowRight Arrow

Hourly Observations for December 2, 2020

Temp ( °F °C ) Dew Point ( °F °C ) Humidity (%) Winds ( mph kmh ) Pressure ( in mb ) Visibility ( mi km ) Precip ( " mm )
12:15 am 00:15 Clear 36 2.1 26 -3.5 67 67 N 15 24 30.26 1025 10 16 N/A
12:35 am 00:35 Clear 36 2 26 -3.2 69 69 N 16 26 30.26 1025 10 16 N/A
12:55 am 00:55 Clear 35 1.7 26 -3.1 71 71 N 16 26 30.26 1025 10 16 N/A
1:15 am 01:15 Clear 35 1.7 27 -3 71 71 N 17 28 30.26 1025 10 16 N/A
1:35 am 01:35 Clear 35 1.6 27 -2.9 72 72 N 18 30 30.26 1025 10 16 N/A
1:55 am 01:55 Clear 35 1.5 27 -2.8 73 73 N 17 28 30.27 1025 10 16 N/A
2:15 am 02:15 Clear 34 1.2 27 -2.8 75 75 N 15 24 30.28 1026 10 16 N/A
2:35 am 02:35 Partly Cloudy 34 1.1 27 -2.7 76 76 N 14 22 30.30 1026 10 16 N/A
2:55 am 02:55 Mostly Cloudy 35 1.5 28 -2.5 75 75 N 15 24 30.30 1026 10 16 N/A
3:15 am 03:15 Cloudy 35 1.8 28 -2.5 73 73 N 15 24 30.30 1026 10 16 N/A
3:35 am 03:35 Cloudy 35 1.8 28 -2.4 74 74 N 14 22 30.30 1026 10 16 N/A
3:55 am 03:55 Cloudy 35 1.8 28 -2.5 73 73 N 10 17 30.30 1026 10 16 N/A
4:15 am 04:15 Cloudy 36 2.1 28 -2.1 74 74 N 14 22 30.30 1026 10 16 N/A
4:35 am 04:35 Cloudy 37 2.7 28 -2.3 70 70 N 22 35 30.30 1026 10 16 N/A
4:55 am 04:55 Cloudy 37 2.6 28 -2.5 69 69 NNE 17 28 30.30 1026 10 16 N/A
5:15 am 05:15 Cloudy 36 2.2 28 -2.3 72 72 N 22 35 30.31 1027 10 16 N/A
5:35 am 05:35 Cloudy 35 1.4 27 -2.9 73 73 N 21 33 30.31 1026 10 16 N/A
5:55 am 05:55 Cloudy 34 1.1 27 -2.9 75 75 N 20 31 30.33 1027 10 16 N/A
6:15 am 06:15 Cloudy 34 1 27 -2.9 75 75 N 20 31 30.35 1028 10 16 N/A
6:35 am 06:35 Mostly Cloudy 33 0.5 26 -3.5 75 75 N 18 30 30.35 1028 10 16 N/A
6:55 am 06:55 Partly Cloudy 32 undefined 25 -3.7 76 76 N 20 31 30.37 1028 10 16 N/A
7:15 am 07:15 Cloudy 33 0.3 26 -3.5 76 76 N 17 28 30.37 1029 10 16 N/A
7:35 am 07:35 Mostly Cloudy 32 0.1 26 -3.5 77 77 NNE 15 24 30.38 1029 10 16 N/A
7:55 am 07:55 Partly Cloudy 32 undefined 26 -3.5 78 78 N 16 26 30.39 1029 10 16 N/A
8:15 am 08:15 Partly Cloudy 32 0.2 27 -3 79 79 N 22 35 30.39 1029 10 16 N/A
8:35 am 08:35 Sunny 33 0.3 27 -2.9 79 79 NNE 17 28 30.41 1030 10 16 N/A
8:55 am 08:55 Partly Cloudy 33 0.5 27 -2.7 79 79 NNE 16 26 30.42 1030 10 16 N/A
9:15 am 09:15 Partly Cloudy 33 0.5 27 -2.6 80 80 N 16 26 30.43 1031 10 16 N/A
9:35 am 09:35 Partly Cloudy 34 1.2 28 -2.3 78 78 N 20 31 30.42 1030 10 16 N/A
9:55 am 09:55 Partly Cloudy 37 2.5 28 -2.1 72 72 N 21 33 30.42 1030 10 16 N/A
10:15 am 10:15 Mostly Cloudy 36 2.1 27 -2.9 70 70 N 26 43 30.44 1031 10 16 N/A
10:35 am 10:35 Partly Cloudy 36 2.4 27 -2.6 70 70 N 24 39 30.44 1031 10 16 N/A
10:55 am 10:55 Mostly Cloudy 38 3.3 27 -2.6 66 66 N 24 39 30.43 1031 10 16 N/A
11:15 am 11:15 Partly Cloudy 38 3.6 27 -2.9 63 63 N 23 37 30.42 1030 10 16 N/A
11:35 am 11:35 Mostly Cloudy 39 4 27 -3 61 61 NNE 23 37 30.42 1030 10 16 N/A
11:55 am 11:55 Partly Cloudy 40 4.2 27 -3 60 60 NNE 17 28 30.41 1030 10 16 N/A
12:15 pm 12:15 Sunny 40 4.6 26 -3.4 56 56 NNE 21 33 30.40 1030 10 16 N/A
12:35 pm 12:35 Partly Cloudy 41 4.8 26 -3.4 56 56 NNE 21 33 30.39 1029 10 16 N/A
12:55 pm 12:55 Mostly Cloudy 41 5.2 26 -3.4 54 54 N 22 35 30.39 1029 10 16 N/A
1:15 pm 13:15 Mostly Cloudy 43 6 26 -3.5 51 51 N 18 30 30.38 1029 10 16 N/A
1:35 pm 13:35 Partly Cloudy 41 5.2 25 -3.7 53 53 NNE 20 31 30.39 1029 10 16 N/A
1:55 pm 13:55 Sunny 43 6 26 -3.6 51 51 NNE 22 35 30.38 1029 10 16 N/A
2:15 pm 14:15 Sunny 42 5.5 25 -3.9 51 51 N 23 37 30.37 1029 10 16 N/A
2:35 pm 14:35 Sunny 42 5.5 25 -3.7 52 52 N 21 33 30.36 1028 10 16 N/A
2:55 pm 14:55 Sunny 42 5.3 24 -4.2 51 51 NNE 21 33 30.38 1029 10 16 N/A
3:15 pm 15:15 Sunny 41 4.8 24 -4.4 52 52 N 20 31 30.38 1029 10 16 N/A
3:35 pm 15:35 Sunny 40 4.6 25 -4.1 54 54 N 21 33 30.38 1029 10 16 N/A
3:55 pm 15:55 Sunny 39 4 24 -4.4 55 55 N 21 33 30.39 1029 10 16 N/A
4:15 pm 16:15 Sunny 38 3.5 24 -4.5 56 56 N 20 31 30.40 1030 10 16 N/A
4:35 pm 16:35 Sunny 37 3 24 -4.3 59 59 N 18 30 30.41 1030 10 16 N/A
4:55 pm 16:55 Sunny 37 2.5 24 -4.3 61 61 N 20 31 30.42 1030 10 16 N/A
5:15 pm 17:15 Clear 35 1.8 24 -4.5 63 63 N 16 26 30.44 1031 10 16 N/A
5:35 pm 17:35 Clear 34 1 24 -4.5 67 67 N 16 26 30.45 1031 10 16 N/A
5:55 pm 17:55 Clear 33 0.5 24 -4.5 69 69 N 17 28 30.46 1032 10 16 N/A
6:15 pm 18:15 Clear 32 0.1 24 -4.5 72 72 N 15 24 30.48 1032 10 16 N/A
6:35 pm 18:35 Clear 32 -0.2 24 -4.5 73 73 N 15 24 30.49 1032 10 16 N/A
6:55 pm 18:55 Clear 30 -1 23 -4.9 75 75 N 13 20 30.49 1032 10 16 N/A
7:15 pm 19:15 Clear 29 -1.5 23 -5 77 77 N 10 17 30.49 1033 10 16 N/A
7:35 pm 19:35 Partly Cloudy 28 -2.2 23 -5.2 80 80 N 9 15 30.51 1033 10 16 N/A
7:55 pm 19:55 Partly Cloudy 28 -2.1 23 -5 81 81 N 8 13 30.50 1033 10 16 N/A
8:15 pm 20:15 Partly Cloudy 27 -2.8 22 -5.5 82 82 N 8 13 30.50 1033 10 16 N/A
8:35 pm 20:35 Partly Cloudy 26 -3.1 22 -5.5 84 84 N 8 13 30.51 1033 10 16 N/A
8:55 pm 20:55 Partly Cloudy 27 -3 23 -5.2 85 85 N 7 11 30.51 1033 10 16 N/A
9:15 pm 21:15 Cloudy 26 -3.2 23 -5.2 86 86 N 6 9 30.52 1033 10 16 N/A
9:35 pm 21:35 Cloudy 30 -1.3 26 -3.6 85 85 N 12 19 30.49 1032 10 16 N/A
9:55 pm 21:55 Cloudy 32 -0.2 26 -3.5 79 79 N 16 26 30.48 1032 10 16 N/A
10:15 pm 22:15 Cloudy 32 -0.1 26 -3.6 78 78 N 13 20 30.48 1032 10 16 N/A
10:35 pm 22:35 Cloudy 32 -0.2 26 -3.6 78 78 N 16 26 30.48 1032 10 16 N/A
10:55 pm 22:55 Cloudy 32 undefined 26 -3.5 78 78 N 17 28 30.47 1032 10 16 N/A
11:15 pm 23:15 Cloudy 32 undefined 26 -3.4 78 78 N 17 28 30.47 1032 10 16 N/A
11:35 pm 23:35 Cloudy 32 0.1 26 -3.2 79 79 N 15 24 30.47 1032 10 16 N/A
11:55 pm 23:55 Cloudy 32 0.2 26 -3.1 79 79 N 15 24 30.46 1032 10 16 N/A

Powered by AerisWeather